******** Week 363 almanac for PRN-1 ******** ID: 1 Health: 0 Eccentricity: 0.001636505127 Time of Applicability(s): 61440 Orbital Inclination(rad): 0.9580213358 Rate of Right Ascen(r/s): -8.171768958e-09 SQRT(A) (m 1/2): 5153.570312 Right Ascen at Week(rad): 2.762247745 Argument of Perigee(rad): 0.1159956874 Mean Anom(rad): 1.395747623 Af0(s): 0.0002472051758 Af1(s/s): -7.275958e-12 week: 363 ******** Week 363 almanac for PRN-2 ******** ID: 2 Health: 0 Eccentricity: 0.01686191559 Time of Applicability(s): 61440 Orbital Inclination(rad): 0.9631625683 Rate of Right Ascen(r/s): -8.148910863e-09 SQRT(A) (m 1/2): 5153.533691 Right Ascen at Week(rad): 2.599840525 Argument of Perigee(rad): -0.8006859151 Mean Anom(rad): 2.882543147 Af0(s): 4.974250488e-05 Af1(s/s): 7.275958e-12 week: 363 ******** Week 363 almanac for PRN-3 ******** ID: 3 Health: 0 Eccentricity: 0.006575107574 Time of Applicability(s): 61440 Orbital Inclination(rad): 0.9937163497 Rate of Right Ascen(r/s): -7.451738966e-09 SQRT(A) (m 1/2): 5153.580566 Right Ascen at Week(rad): -2.533642662 Argument of Perigee(rad): 1.202695991 Mean Anom(rad): -0.7062633306 Af0(s): 0.0004197965942 Af1(s/s): -1.455192e-11 week: 363 ******** Week 363 almanac for PRN-4 ******** ID: 4 Health: 0 Eccentricity: 0.003715991974 Time of Applicability(s): 61440 Orbital Inclination(rad): 0.9704849297 Rate of Right Ascen(r/s): -7.828897533e-09 SQRT(A) (m 1/2): 5153.667969 Right Ascen at Week(rad): -1.463382843 Argument of Perigee(rad): -2.873318665 Mean Anom(rad): 2.257470693 Af0(s): 3.919106445e-05 Af1(s/s): 0 week: 363 ******** Week 363 almanac for PRN-5 ******** ID: 5 Health: 0 Eccentricity: 0.005434036255 Time of Applicability(s): 61440 Orbital Inclination(rad): 0.9802700493 Rate of Right Ascen(r/s): -7.600316584e-09 SQRT(A) (m 1/2): 5153.67627 Right Ascen at Week(rad): -2.593626704 Argument of Perigee(rad): 1.416558229 Mean Anom(rad): 2.928616874 Af0(s): -0.0001823891846 Af1(s/s): 0 week: 363 ******** Week 363 almanac for PRN-6 ******** ID: 6 Health: 0 Eccentricity: 0.003832817078 Time of Applicability(s): 61440 Orbital Inclination(rad): 0.986861373 Rate of Right Ascen(r/s): -7.920329913e-09 SQRT(A) (m 1/2): 5153.602051 Right Ascen at Week(rad): 2.713343493 Argument of Perigee(rad): -0.5514941815 Mean Anom(rad): 0.596091602 Af0(s): -0.0004838589111 Af1(s/s): 0 week: 363 ******** Week 363 almanac for PRN-7 ******** ID: 7 Health: 0 Eccentricity: 0.02061653137 Time of Applicability(s): 61440 Orbital Inclination(rad): 0.9511663591 Rate of Right Ascen(r/s): -7.954617056e-09 SQRT(A) (m 1/2): 5153.556152 Right Ascen at Week(rad): -0.4546084642 Argument of Perigee(rad): -1.98551455 Mean Anom(rad): -0.2555883137 Af0(s): -0.0001296319824 Af1(s/s): -3.637979e-12 week: 363 ******** Week 363 almanac for PRN-8 ******** ID: 8 Health: 0 Eccentricity: 0.01158380508 Time of Applicability(s): 61440 Orbital Inclination(rad): 0.9429931177 Rate of Right Ascen(r/s): -8.286059433e-09 SQRT(A) (m 1/2): 5153.64209 Right Ascen at Week(rad): 1.591985186 Argument of Perigee(rad): 0.5316400659 Mean Anom(rad): 2.562427647 Af0(s): 0.0003745761353 Af1(s/s): -7.275958e-12 week: 363 ******** Week 363 almanac for PRN-9 ******** ID: 9 Health: 0 Eccentricity: 0.003342151642 Time of Applicability(s): 61440 Orbital Inclination(rad): 0.9646665885 Rate of Right Ascen(r/s): -7.897471818e-09 SQRT(A) (m 1/2): 5153.709473 Right Ascen at Week(rad): -1.527788689 Argument of Perigee(rad): 2.058758388 Mean Anom(rad): -3.122568072 Af0(s): 0.0006044468018 Af1(s/s): -3.637979e-12 week: 363 ******** Week 363 almanac for PRN-10 ******** ID: 10 Health: 0 Eccentricity: 0.01092767715 Time of Applicability(s): 61440 Orbital Inclination(rad): 0.9932489649 Rate of Right Ascen(r/s): -7.417451824e-09 SQRT(A) (m 1/2): 5153.61377 Right Ascen at Week(rad): -2.536151485 Argument of Perigee(rad): -2.255644223 Mean Anom(rad): -1.700245431 Af0(s): -0.0004665244019 Af1(s/s): 0 week: 363 ******** Week 363 almanac for PRN-11 ******** ID: 11 Health: 0 Eccentricity: 0.002216339111 Time of Applicability(s): 61440 Orbital Inclination(rad): 0.9637318189 Rate of Right Ascen(r/s): -8.137481816e-09 SQRT(A) (m 1/2): 5153.533691 Right Ascen at Week(rad): 2.731692465 Argument of Perigee(rad): -2.310025639 Mean Anom(rad): 1.712612027 Af0(s): -0.0003150358643 Af1(s/s): 1.455192e-11 week: 363 ******** Week 363 almanac for PRN-12 ******** ID: 12 Health: 0 Eccentricity: 0.008980751038 Time of Applicability(s): 61440 Orbital Inclination(rad): 0.95930964 Rate of Right Ascen(r/s): -7.703178011e-09 SQRT(A) (m 1/2): 5153.718262 Right Ascen at Week(rad): 0.6629077754 Argument of Perigee(rad): 1.567081967 Mean Anom(rad): -0.9360529786 Af0(s): -0.0004800905395 Af1(s/s): 0 week: 363 ******** Week 363 almanac for PRN-13 ******** ID: 13 Health: 0 Eccentricity: 0.01005506515 Time of Applicability(s): 61440 Orbital Inclination(rad): 0.9760695785 Rate of Right Ascen(r/s): -7.806039438e-09 SQRT(A) (m 1/2): 5153.614746 Right Ascen at Week(rad): -1.352356115 Argument of Perigee(rad): 0.9942768373 Mean Anom(rad): 2.326398712 Af0(s): 0.0005396308105 Af1(s/s): 0 week: 363 ******** Week 363 almanac for PRN-14 ******** ID: 14 Health: 0 Eccentricity: 0.006832122803 Time of Applicability(s): 61440 Orbital Inclination(rad): 0.94268752 Rate of Right Ascen(r/s): -7.840326581e-09 SQRT(A) (m 1/2): 5153.606934 Right Ascen at Week(rad): 0.6079638493 Argument of Perigee(rad): -2.7418652 Mean Anom(rad): -1.078891832 Af0(s): 0.0005848512695 Af1(s/s): 0 week: 363 ******** Week 363 almanac for PRN-15 ******** ID: 15 Health: 0 Eccentricity: 0.01663303375 Time of Applicability(s): 61440 Orbital Inclination(rad): 0.9426156147 Rate of Right Ascen(r/s): -8.080336578e-09 SQRT(A) (m 1/2): 5153.64502 Right Ascen at Week(rad): -1.672370873 Argument of Perigee(rad): 1.504777105 Mean Anom(rad): 1.568609206 Af0(s): 0.0003135285156 Af1(s/s): 3.637979e-12 week: 363 ******** Week 363 almanac for PRN-16 ******** ID: 16 Health: 0 Eccentricity: 0.01502656937 Time of Applicability(s): 61440 Orbital Inclination(rad): 0.9584287994 Rate of Right Ascen(r/s): -7.703178011e-09 SQRT(A) (m 1/2): 5153.612793 Right Ascen at Week(rad): 0.6798471028 Argument of Perigee(rad): 0.9318427706 Mean Anom(rad): -2.684167149 Af0(s): 0.0001823891846 Af1(s/s): 7.275958e-12 week: 363 ******** Week 363 almanac for PRN-17 ******** ID: 17 Health: 0 Eccentricity: 0.01261949539 Time of Applicability(s): 61440 Orbital Inclination(rad): 0.9586385234 Rate of Right Ascen(r/s): -8.171768958e-09 SQRT(A) (m 1/2): 5153.552246 Right Ascen at Week(rad): 1.697047141 Argument of Perigee(rad): -1.118822895 Mean Anom(rad): 2.509263753 Af0(s): -7.461375732e-05 Af1(s/s): -1.091394e-11 week: 363 ******** Week 363 almanac for PRN-18 ******** ID: 18 Health: 0 Eccentricity: 0.005794048309 Time of Applicability(s): 61440 Orbital Inclination(rad): 0.9718151786 Rate of Right Ascen(r/s): -8.057478483e-09 SQRT(A) (m 1/2): 5153.586426 Right Ascen at Week(rad): 2.708027366 Argument of Perigee(rad): -2.866441592 Mean Anom(rad): 0.5221111091 Af0(s): -0.0003127748413 Af1(s/s): 1.091394e-11 week: 363 ******** Week 363 almanac for PRN-19 ******** ID: 19 Health: 0 Eccentricity: 0.0112247467 Time of Applicability(s): 61440 Orbital Inclination(rad): 0.957817604 Rate of Right Ascen(r/s): -8.194627053e-09 SQRT(A) (m 1/2): 5153.672852 Right Ascen at Week(rad): 1.740944982 Argument of Perigee(rad): 2.93938133 Mean Anom(rad): -1.980934329 Af0(s): 0.0005486749023 Af1(s/s): 0 week: 363 ******** Week 363 almanac for PRN-20 ******** ID: 20 Health: 0 Eccentricity: 0.002242565155 Time of Applicability(s): 61440 Orbital Inclination(rad): 0.9600646461 Rate of Right Ascen(r/s): -7.943188008e-09 SQRT(A) (m 1/2): 5153.699219 Right Ascen at Week(rad): -1.522271452 Argument of Perigee(rad): -1.969200275 Mean Anom(rad): -0.9769929634 Af0(s): 5.275720215e-05 Af1(s/s): 2.182787e-11 week: 363 ******** Week 363 almanac for PRN-21 ******** ID: 21 Health: 0 Eccentricity: 0.0007929801941 Time of Applicability(s): 61440 Orbital Inclination(rad): 0.9631146314 Rate of Right Ascen(r/s): -7.760323248e-09 SQRT(A) (m 1/2): 5153.731934 Right Ascen at Week(rad): -2.527996969 Argument of Perigee(rad): -0.268473228 Mean Anom(rad): -1.28138179 Af0(s): 0.0003240799561 Af1(s/s): 3.637979e-12 week: 363 ******** Week 363 almanac for PRN-22 ******** ID: 22 Health: 0 Eccentricity: 0.01204586029 Time of Applicability(s): 61440 Orbital Inclination(rad): 0.957871533 Rate of Right Ascen(r/s): -7.703178011e-09 SQRT(A) (m 1/2): 5153.57959 Right Ascen at Week(rad): 0.6832023113 Argument of Perigee(rad): -0.9933952477 Mean Anom(rad): -3.127259147 Af0(s): -2.411757812e-05 Af1(s/s): 7.275958e-12 week: 363 ******** Week 363 almanac for PRN-23 ******** ID: 23 Health: 0 Eccentricity: 0.006059169769 Time of Applicability(s): 61440 Orbital Inclination(rad): 0.9882515431 Rate of Right Ascen(r/s): -7.486026109e-09 SQRT(A) (m 1/2): 5153.669434 Right Ascen at Week(rad): -2.568322388 Argument of Perigee(rad): -2.738894984 Mean Anom(rad): -0.6238309631 Af0(s): 0.0004959177002 Af1(s/s): 3.637979e-12 week: 363 ******** Week 363 almanac for PRN-24 ******** ID: 24 Health: 0 Eccentricity: 0.01793909073 Time of Applicability(s): 61440 Orbital Inclination(rad): 0.9351134899 Rate of Right Ascen(r/s): -8.217485148e-09 SQRT(A) (m 1/2): 5153.580566 Right Ascen at Week(rad): -0.5634473223 Argument of Perigee(rad): 1.137798417 Mean Anom(rad): 0.7269353695 Af0(s): -5.577189941e-05 Af1(s/s): 1.818989e-11 week: 363 ******** Week 363 almanac for PRN-25 ******** ID: 25 Health: 0 Eccentricity: 0.01291465759 Time of Applicability(s): 61440 Orbital Inclination(rad): 0.9477268866 Rate of Right Ascen(r/s): -7.817468486e-09 SQRT(A) (m 1/2): 5153.668945 Right Ascen at Week(rad): 0.5688791723 Argument of Perigee(rad): 1.159535179 Mean Anom(rad): -1.059047079 Af0(s): 0.0003444291626 Af1(s/s): -3.637979e-12 week: 363 ******** Week 363 almanac for PRN-26 ******** ID: 26 Health: 0 Eccentricity: 0.01101160049 Time of Applicability(s): 61440 Orbital Inclination(rad): 0.9285281583 Rate of Right Ascen(r/s): -7.977475151e-09 SQRT(A) (m 1/2): 5153.675781 Right Ascen at Week(rad): 0.4939961174 Argument of Perigee(rad): 0.7117644643 Mean Anom(rad): -1.879666131 Af0(s): -0.0002720764282 Af1(s/s): -3.637979e-12 week: 363 ******** Week 363 almanac for PRN-27 ******** ID: 27 Health: 0 Eccentricity: 0.01437568665 Time of Applicability(s): 61440 Orbital Inclination(rad): 0.9520831523 Rate of Right Ascen(r/s): -8.217485148e-09 SQRT(A) (m 1/2): 5153.616211 Right Ascen at Week(rad): 1.6242044 Argument of Perigee(rad): 0.888302958 Mean Anom(rad): 2.666967164 Af0(s): -6.104761963e-05 Af1(s/s): -1.455192e-11 week: 363 ******** Week 363 almanac for PRN-28 ******** ID: 28 Health: 0 Eccentricity: 0.0004420280457 Time of Applicability(s): 61440 Orbital Inclination(rad): 0.962083988 Rate of Right Ascen(r/s): -7.897471818e-09 SQRT(A) (m 1/2): 5153.74707 Right Ascen at Week(rad): -0.4801251261 Argument of Perigee(rad): -0.1312291353 Mean Anom(rad): 0.1884077449 Af0(s): -0.0004522045898 Af1(s/s): 7.275958e-12 week: 363 ******** Week 363 almanac for PRN-29 ******** ID: 29 Health: 0 Eccentricity: 0.003438949585 Time of Applicability(s): 61440 Orbital Inclination(rad): 0.9612930292 Rate of Right Ascen(r/s): -8.148910863e-09 SQRT(A) (m 1/2): 5153.698242 Right Ascen at Week(rad): 1.713835542 Argument of Perigee(rad): 2.744783733 Mean Anom(rad): 2.522295099 Af0(s): -0.0002796131714 Af1(s/s): 7.275958e-12 week: 363 ******** Week 363 almanac for PRN-30 ******** ID: 30 Health: 0 Eccentricity: 0.008138179779 Time of Applicability(s): 61440 Orbital Inclination(rad): 0.9364377467 Rate of Right Ascen(r/s): -8.148910863e-09 SQRT(A) (m 1/2): 5153.684082 Right Ascen at Week(rad): -0.4638913699 Argument of Perigee(rad): -2.304809505 Mean Anom(rad): -0.4501199975 Af0(s): 0.0001273709595 Af1(s/s): 1.455192e-11 week: 363 ******** Week 363 almanac for PRN-31 ******** ID: 31 Health: 0 Eccentricity: 0.01083421707 Time of Applicability(s): 61440 Orbital Inclination(rad): 0.9549473821 Rate of Right Ascen(r/s): -7.966046103e-09 SQRT(A) (m 1/2): 5153.517578 Right Ascen at Week(rad): -0.4303059541 Argument of Perigee(rad): 0.9387951191 Mean Anom(rad): -1.343534602 Af0(s): -0.0001266172852 Af1(s/s): 3.637979e-12 week: 363 ******** Week 363 almanac for PRN-32 ******** ID: 32 Health: 0 Eccentricity: 0.009367465973 Time of Applicability(s): 61440 Orbital Inclination(rad): 0.9676985974 Rate of Right Ascen(r/s): -7.874613723e-09 SQRT(A) (m 1/2): 5153.683594 Right Ascen at Week(rad): -1.510711169 Argument of Perigee(rad): -1.989312051 Mean Anom(rad): -3.052129292 Af0(s): -2.863962402e-05 Af1(s/s): 1.818989e-11 week: 363